Regional Weather Roundup
Issued by NWS Burlington, VT

Home | Current Version | Previous Version | Text Only | Print | Product List | Glossary On
Versions: 1 2 3 4 5 6 7 8 9 10 11 12 13 14 15 16 17 18 19 20 21 22 23 24 25 26 27 28 29 30 31 32 33 34 35 36 37 38 39 40 41 42 43 44 45 46 47 48 49 50
000
ASUS41 KBTV 281830
RWRBTV
VERMONT REGIONAL WEATHER ROUNDUP
NATIONAL WEATHER SERVICE BURLINGTON VT
200 PM EDT SAT MAY 28 2016

NOTE: "FAIR" INDICATES FEW OR NO CLOUDS BELOW 12,000 FEET WITH NO
SIGNIFICANT WEATHER AND/OR OBSTRUCTIONS TO VISIBILITY.

* THESE REPORTS ARE NOT UNDER NWS QUALITY CONTROL AND/OR DO NOT
  REPORT WEATHER SUCH AS PRECIPITATION AND FOG.

VTZ001>019-281900-
_____VERMONT_____


CITY           SKY/WX    TMP DP  RH WIND       PRES   REMARKS
BURLINGTON     PTSUNNY   88  62  41 N5        30.07F
6HR MIN TEMP:  76; 6HR MAX TEMP:  88;

MONTPELIER     FAIR      84  57  39 NW7       30.14S
6HR MIN TEMP:  70; 6HR MAX TEMP:  85;

MORRISVILLE    FAIR      85  54  34 NW12G17   30.11R
6HR MIN TEMP:  70; 6HR MAX TEMP:  86;

ST. JOHNSBURY*   N/A     88  56  33 MISG      30.05S
6HR MIN TEMP:  69; 6HR MAX TEMP:  89;

LYNDONVILLE*   PTSUNNY   82  58  43 W7        30.12S
6HR MIN TEMP:  70; 6HR MAX TEMP:  83;

RUTLAND*       FAIR      85  62  46 N6        30.09F
6HR MIN TEMP:  72; 6HR MAX TEMP:  86;

SPRINGFIELD    FAIR      90  57  32 NW10      30.06F
6HR MIN TEMP:  72; 6HR MAX TEMP:  90;

HIGHGATE*      FAIR      85  61  43 N6        30.09S
6HR MIN TEMP:  72; 6HR MAX TEMP:  83;

NEWPORT*       FAIR      81  65  59 N10       30.12R
6HR MIN TEMP:  71; 6HR MAX TEMP:  82;

BENNINGTON     FAIR      87  61  41 NW6       30.11S
6HR MIN TEMP:  72; 6HR MAX TEMP:  88;

SUTTON*          N/A     82 N/A N/A MISG        N/A
MT. MANSFIELD*   N/A     70 N/A N/A NW18        N/A

_____LAKE CHAMPLAIN_____


CITY           SKY/WX    TMP DP  RH WIND       PRES   REMARKS
BURTON ISLAND*   N/A     82  64  54 NW1         N/A
COLCHESTER RF*   N/A     73  66  78 N6          N/A
DIAMOND ISL*     N/A     79  66  65 N7          N/A

$$

NYZ007-026>031-035-052-083-087-281900-
_____NORTHERN NEW YORK_____


CITY           SKY/WX    TMP DP  RH WIND       PRES   REMARKS
PLATTSBURGH    MOSUNNY   82  67  60 N7        30.08S
6HR MIN TEMP:  72; 6HR MAX TEMP:  82;

SARANAC LAKE   MOSUNNY   86  53  32 VRB6      30.12F
6HR MIN TEMP:  69; 6HR MAX TEMP:  86;

MASSENA        SUNNY     88  63  43 VRB3      30.08F
6HR MIN TEMP:  72; 6HR MAX TEMP:  88;

OGDENSBURG*    SUNNY     88  66  48 SW7       30.07F HX  90
WATERTOWN      SUNNY     85  63  47 W8        30.09F
6HR MIN TEMP:  70; 6HR MAX TEMP:  85;

ALBANY         PTSUNNY   91  62  37 W9        30.07F HX  91
6HR MIN TEMP:  75; 6HR MAX TEMP:  91;

GLENS FALLS    MOSUNNY   88  65  46 SE3       30.06F HX  90
6HR MIN TEMP:  72; 6HR MAX TEMP:  89;


$$
NHZ002-005-011-281900-
_____NEW HAMPSHIRE_____


CITY           SKY/WX    TMP DP  RH WIND       PRES   REMARKS
LEBANON        CLOUDY    91  62  37 VRB7      30.05F HX  91
6HR MIN TEMP:  73; 6HR MAX TEMP:  92;

MT WASHINGTON  PTSUNNY   61  52  72 W14G22      N/A
6HR MIN TEMP:  53; 6HR MAX TEMP:  61;

PLYMOUTH       FAIR      89  56  32 W3        30.05F
6HR MIN TEMP:  67; 6HR MAX TEMP:  90;

WHITEFIELD     MOSUNNY   86  59  39 W7        30.08F
6HR MIN TEMP:  77; 6HR MAX TEMP:  87;


$$

_____REGIONAL QUEBEC LOCATIONS_____


CITY           SKY/WX    TMP DP  RH WIND       PRES   REMARKS
MONTREAL       CLOUDY    81  59  47 VRB5      30.09S
QUEBEC CITY    PTSUNNY   68  50  52 NE14      30.14S
SHERBROOKE     SUNNY     79  55  44 N10       30.11S

_____REGIONAL ONTARIO LOCATIONS_____


CITY           SKY/WX    TMP DP  RH WIND       PRES   REMARKS
OTTAWA         PTSUNNY   88  63  42 SW5       30.07F

______KEY______
VSB  - VISIBILITY IN MILES
WCI  - WIND CHILL INDEX
HX   - HEAT INDEX
$$
NNNN



USA.gov is the U.S. government's official web portal to all federal, state and local government web resources and services.